Station AAMC1 - 9414750 - Alameda, CA Image indicating link to RSS feed of recent meteorological observations for station AAMC1


Conditions at AAMC1 as of
(4:18 pm PDT)
2318 GMT on 05/19/2024:
     

Click on the graph icon in the table below to see a time series plot of the last five days of that observation.

5-day plot - Wind Direction Wind Direction (WDIR): W ( 270 deg true )
5-day plot - Wind Speed Wind Speed (WSPD): 8.0 kts
5-day plot - Wind Gust Wind Gust (GST): 12.0 kts
5-day plot - Atmospheric Pressure Atmospheric Pressure (PRES):30.01 in
5-day plot - Air Temperature Air Temperature (ATMP): 60.1 °F
5-day plot - Water Temperature Water Temperature (WTMP): 65.1 °F
5-day plot - Wind Speed at 10 Meters Wind Speed at 10 meters (WSPD10M): 9.7 kts
5-day plot - Wind Speed at 20 Meters Wind Speed at 20 meters (WSPD20M): 9.7 kts
5-day plot -  Wind Speed, Wind Gust and Atmospheric Pressure Combined plot of Wind Speed, Gust, and Air Pressure
NOS Water Level Observation Network Water Level
Previous observations
TIME
(PDT)
5-day plot - Wind Direction
WDIR
 
5-day plot - Wind Speed
WSPD
kts
5-day plot - Wind Gust
GST
kts
5-day plot - Wave Height
WVHT
ft
5-day plot - Dominant Wave Period
DPD
sec
5-day plot - Average Wave Period
APD
sec
5-day plot - Mean Wave Direction
MWD
 
5-day plot - Atmospheric Pressure
PRES
in
5-day plot - Pressure Tendency
PTDY
in
5-day plot - Air Temperature
ATMP
°F
5-day plot - Water Temperature
WTMP
°F
5-day plot - Dew Point
DEWP
°F
5-day plot - Salinity
SAL
psu
5-day plot - Visibility
VIS
nmi
5-day plot - Tide (above MLLW)
TIDE
ft
2024-05-19 04:12 pm W 8.9 14.0----30.01- 59.7 65.1----
2024-05-19 04:06 pm W 11.1 15.0----30.01- 59.9 65.1----
2024-05-19 04:00 pm W 9.9 14.0------- 64.9----
2024-05-19 03:54 pm W 8.9 14.0------- 64.9----
2024-05-19 03:48 pm W 9.9 13.0----30.02-- 64.9----
2024-05-19 03:42 pm W 7.0 12.0----30.02-- 64.9----
2024-05-19 03:36 pm W 8.9 13.0----30.02-- 64.9----
2024-05-19 03:30 pm W 9.9 14.0----30.02-- 64.9----
2024-05-19 03:24 pm W 11.1 12.0----30.03-- 64.9----
2024-05-19 03:18 pm-------30.03- 59.7 64.8----
2024-05-19 03:12 pm-------30.03- 59.0 64.8----
2024-05-19 03:06 pm-------30.03- 59.4 64.8----
2024-05-19 03:00 pmWSW 9.9 13.0----30.03-0.04 59.2 64.8----
2024-05-19 02:54 pmWSW 9.9 13.0----30.03- 58.8 64.6----
2024-05-19 02:48 pmWSW 9.9 13.0----30.03- 59.0 64.6----
2024-05-19 02:42 pm W 9.9 12.0----30.03- 59.0 64.6----
2024-05-19 02:36 pmWSW 11.1 13.0----30.04- 59.0 64.6----
2024-05-19 02:30 pmWSW 11.1 14.0----30.04- 58.6 64.4----
2024-05-19 02:24 pmWSW 11.1 13.0----30.04- 58.5 64.4----
2024-05-19 02:18 pmWSW 11.1 13.0----30.04-- 64.4----
2024-05-19 02:12 pmWSW 12.0 13.0----30.04- 58.1 64.4----
2024-05-19 02:06 pmWSW 11.1 13.0----30.04- 58.5 64.2----
2024-05-19 02:00 pmWSW 11.1 14.0----30.04-0.02 58.3 64.2----
2024-05-19 01:54 pmWSW 12.0 15.0----30.04- 58.3 64.0----
2024-05-19 01:48 pmWSW 12.0 15.0----30.05- 58.5 64.0----
2024-05-19 01:42 pmWSW 12.0 15.0----30.04- 58.6 63.9----
2024-05-19 01:36 pmWSW 13.0 15.0----30.04- 58.5 63.9----
2024-05-19 01:30 pmWSW 12.0 13.0----30.04- 58.6 63.7----
2024-05-19 01:24 pm W 11.1 14.0----30.05- 58.3 63.7----
2024-05-19 01:18 pm W 11.1 14.0----30.05- 58.1 63.5----
2024-05-19 01:12 pmWSW 11.1 12.0----30.05- 58.1 63.5----
2024-05-19 01:06 pmWSW 11.1 13.0----30.05- 57.7 63.5----
2024-05-19 01:00 pmWSW 9.9 12.0----30.05-0.01- 63.5----
2024-05-19 12:54 pm W 11.1 13.0----30.06-- 63.5----
2024-05-19 12:48 pm W 9.9 12.0----30.06-- 63.3----
2024-05-19 12:42 pm W 9.9 12.0----30.06-- 63.3----
2024-05-19 12:36 pm W 9.9 12.0----30.06-- 63.3----
2024-05-19 12:30 pm W 9.9 12.0----30.06- 57.7 63.3----
2024-05-19 12:24 pmWSW 9.9 12.0----30.06- 57.6 63.5----
2024-05-19 12:18 pm W 9.9 12.0----30.06- 57.4 63.5----
2024-05-19 12:12 pm W 8.9 12.0----30.07- 57.7 63.5----
2024-05-19 12:06 pm W 9.9 12.0----30.06- 57.4 63.5----
2024-05-19 12:00 pm W 8.9 12.0----30.07+0.00- 63.5----
2024-05-19 11:54 am W 9.9 13.0----30.06-- 63.5----
2024-05-19 11:48 am W 9.9 13.0----30.07- 57.2 63.3----
2024-05-19 11:42 am W 9.9 12.0----30.06- 57.4 63.3----
2024-05-19 11:36 am W 8.9 12.0----30.07- 57.2 63.3----
2024-05-19 11:30 am W 8.0 9.9----30.07- 57.4 63.3----
2024-05-19 11:24 am W 8.0 9.9----30.06- 57.4 63.3----
2024-05-19 11:18 am W 7.0 9.9----30.06- 57.7 63.5----
2024-05-19 11:12 am W 6.0 8.9----30.06- 57.0 63.5----
2024-05-19 11:06 am SW 1.0 2.9----30.06- 57.2 63.5----
2024-05-19 11:00 amSSW 1.9 5.1----30.06+0.01 56.5 63.5----
2024-05-19 10:54 am W 2.9 4.1----30.07- 56.8 63.3----
2024-05-19 10:48 amWSW 2.9 4.1----30.07- 56.7 63.3----
2024-05-19 10:42 am SW 1.9 5.1----30.07- 57.0 63.3----
2024-05-19 10:36 am SW 1.9 4.1----30.06- 56.7 63.3----
2024-05-19 10:30 am W 1.0 1.9----30.07- 57.0 63.3----
2024-05-19 10:24 am- 0.0 1.0----30.06- 57.6 63.1----
2024-05-19 10:18 am- 0.0 1.0----30.06-- 63.1----
2024-05-19 10:12 am S 1.0 1.9----30.07-- 63.1----
2024-05-19 10:06 am W 1.9 2.9----30.07-- 63.1----
2024-05-19 10:00 amWSW 1.9 4.1----30.07+0.02- 63.1----
2024-05-19 09:54 am SW 1.0 2.9----30.07-- 63.1----
2024-05-19 09:48 amSSW 1.9 4.1----30.07- 55.4 63.1----
2024-05-19 09:42 am SW 2.9 4.1----30.07- 55.2 63.1----
2024-05-19 09:36 am SW 1.9 4.1----30.07- 55.0 63.0----
2024-05-19 09:30 amWSW 2.9 4.1----30.06- 55.0 63.0----
2024-05-19 09:24 amWSW 2.9 4.1----30.06- 55.0 63.0----
2024-05-19 09:18 amSSW 1.9 2.9----30.06- 55.0 63.0----
2024-05-19 09:12 am W 1.9 2.9----30.06- 55.0 63.0----
2024-05-19 09:06 am SW 1.0 2.9----30.06- 54.9 63.0----
2024-05-19 09:00 am W 1.9 4.1----30.06+0.03 54.9 63.0----
2024-05-19 08:54 am W 2.9 4.1----30.06- 54.5 63.0----
2024-05-19 08:48 am W 4.1 4.1----30.06- 54.3 63.0----
2024-05-19 08:42 amWSW 1.9 5.1----30.06- 54.5 63.0----
2024-05-19 08:36 am SW 2.9 5.1----30.06- 54.5 63.0----
2024-05-19 08:30 amWSW 2.9 5.1----30.06- 54.3 63.0----
2024-05-19 08:24 am W 2.9 6.0----30.06- 54.1 63.0----
2024-05-19 08:18 am-------30.05- 54.1 63.0----
2024-05-19 08:12 am-------30.05- 54.3 63.0----
2024-05-19 08:06 am-------30.05- 54.0 63.0----
2024-05-19 08:00 am-------30.05+0.03 54.0 63.0----
2024-05-19 07:54 am-------30.05- 54.0 63.0----
2024-05-19 07:48 am-------30.05- 53.8 63.0----
2024-05-19 07:42 am-------30.05- 53.6 63.0----
2024-05-19 07:36 am-------30.05- 53.4 63.0----
2024-05-19 07:30 am SW 6.0 8.0----30.05- 53.6 63.0----
2024-05-19 07:24 am SW 5.1 8.9----30.05- 53.6 63.0----
2024-05-19 07:18 am SW 6.0 7.0----30.05- 53.4 63.1----
2024-05-19 07:12 amSSW 7.0 8.9----30.05- 53.4 63.1----
2024-05-19 07:06 amSSW 6.0 8.9----30.04- 53.4 63.1----
2024-05-19 07:00 am SW 5.1 7.0----30.04+0.02- 63.1----
2024-05-19 06:54 am SW 4.1 7.0----30.04-- 63.1----
2024-05-19 06:48 am-------30.04- 53.2 63.1----
2024-05-19 06:42 am-------30.04- 53.2 63.1----
2024-05-19 06:36 am-------30.04- 53.1 63.1----
2024-05-19 06:30 amSSW 4.1 5.1----30.03-- 63.1----
2024-05-19 06:24 am S 4.1 5.1----30.03-- 63.3----
2024-05-19 06:18 am SW 4.1 5.1----30.03-- 63.3----
2024-05-19 06:12 am SW 2.9 7.0----30.03-- 63.3----
2024-05-19 06:06 amWSW 5.1 7.0----30.03-- 63.5----
2024-05-19 06:00 amWSW 5.1 6.0----30.03+0.01- 63.5----
2024-05-19 05:54 am SW 6.0 7.0----30.03-- 63.5----
2024-05-19 05:48 am SW 6.0 8.0----30.03- 53.2 63.5----
2024-05-19 05:42 amWSW 6.0 8.0----30.03- 52.9 63.7----
2024-05-19 05:36 am SW 5.1 8.9----30.03- 53.1 63.7----
2024-05-19 05:30 am-------30.03- 53.1-----
2024-05-19 05:24 am-------30.03- 53.2-----
2024-05-19 05:18 amWSW 8.0 9.9----30.03-- 63.9----
2024-05-19 05:12 am SW 8.0 9.9----30.03-- 63.9----
2024-05-19 05:06 am SW 7.0 9.9----30.03-- 63.9----
2024-05-19 05:00 am SW 8.0 9.9----30.02+0.00 53.1 64.0----
2024-05-19 04:54 amWSW 8.0 9.9----30.03- 53.6 64.0----
2024-05-19 04:48 am SW 8.9 12.0----30.02- 53.4 64.0----
2024-05-19 04:42 am SW 8.9 11.1----30.02- 53.6 64.0----
2024-05-19 04:36 am SW 7.0 9.9----30.02- 53.6 64.0----
2024-05-19 04:30 amWSW 8.0 12.0----30.02- 53.6 64.0----
2024-05-19 04:24 am SW 9.9 12.0----30.02- 53.8 64.0----
2024-05-19 04:18 am SW 8.9 13.0----30.02- 53.6 64.0----
2024-05-19 04:12 am SW 8.0 11.1----30.02- 53.4 64.0----
2024-05-19 04:06 am SW 7.0 11.1----30.02- 54.0 64.0----
2024-05-19 04:00 amWSW 7.0 11.1----30.03+0.00------
2024-05-19 03:54 am SW 6.0 12.0----30.02-------
2024-05-19 03:48 am SW 8.0 13.0----30.02-- 64.0----
2024-05-19 03:42 am SW 11.1 13.0----30.03-- 64.0----
2024-05-19 03:36 amWSW 11.1 13.0----30.03-- 64.2----
2024-05-19 03:30 am SW 8.0 13.0----30.03- 53.8 64.2----
2024-05-19 03:24 amWSW 9.9 13.0----30.02- 53.8 64.2----
2024-05-19 03:18 am SW 9.9 13.0----30.03-- 64.2----
2024-05-19 03:12 am SW 11.1 12.0----30.02-- 64.2----
2024-05-19 03:06 am SW 8.9 12.0----30.02-- 64.2----
2024-05-19 03:00 am-------30.02+0.00------
2024-05-19 02:54 am-------30.02-------
2024-05-19 02:48 am SW 9.9 13.0----30.02- 54.3 64.2----
2024-05-19 02:42 amWSW 11.1 13.0----30.02- 54.3 64.2----
2024-05-19 02:36 amWSW 12.0 14.0----30.02- 54.0 64.2----
2024-05-19 02:30 amWSW 12.0 15.0----30.02- 54.3 64.2----
2024-05-19 02:24 amWSW 12.0 14.0----30.02- 54.0 64.2----
2024-05-19 02:18 am SW 9.9 13.0----30.02- 54.5 64.2----
2024-05-19 02:12 amWSW 11.1 14.0----30.02- 54.3 64.2----
2024-05-19 02:06 amWSW 12.0 15.0----30.02- 54.0 64.2----
2024-05-19 02:00 amWSW 11.1 14.0----30.02+0.00 54.1 64.4----
2024-05-19 01:54 amWSW 12.0 14.0----30.03- 54.1 64.4----
2024-05-19 01:48 amWSW 12.0 14.0----30.03- 54.1 64.4----
2024-05-19 01:42 amWSW 11.1 13.0----30.03- 54.3 64.4----
2024-05-19 01:36 amWSW 12.0 14.0----30.02- 54.1 64.4----
2024-05-19 01:30 amWSW 12.0 15.0----30.03- 54.5 64.4----
2024-05-19 01:24 amWSW 13.0 15.9----30.03- 54.1 64.4----
2024-05-19 01:18 amWSW 14.0 17.1----30.03- 54.1 64.2----
2024-05-19 01:12 amWSW 13.0 15.9----30.03- 54.5 64.2----
2024-05-19 01:06 amWSW 12.0 15.9----30.03- 54.3 64.2----
2024-05-19 01:00 amWSW 14.0 17.1----30.03+0.00 54.3 64.2----
2024-05-19 12:54 amWSW 13.0 15.9----30.03- 54.3 64.2----
2024-05-19 12:48 amWSW 13.0 15.9----30.03- 54.5 64.2----
2024-05-19 12:42 amWSW 13.0 15.9----30.03- 54.1 64.0----
2024-05-19 12:36 amWSW 14.0 15.9----30.03- 54.1 64.0----
2024-05-19 12:30 amWSW 14.0 17.1----30.03- 54.5 64.4----
2024-05-19 12:24 amWSW 14.0 17.1----30.03- 54.0 64.4----
2024-05-19 12:18 amWSW 14.0 17.1----30.03- 54.7 64.4----
2024-05-19 12:12 amWSW 14.0 17.1----30.03- 54.1 64.4----
2024-05-19 12:06 amWSW 12.0 17.1----30.02- 54.3 64.4----
2024-05-19 12:00 amWSW 13.0 15.0----30.03+0.03 54.3 64.4----
2024-05-18 11:54 pmWSW 14.0 15.9----30.03- 54.1 64.4----
2024-05-18 11:48 pmWSW 14.0 17.1----30.03- 54.1 64.6----
2024-05-18 11:42 pmWSW 14.0 17.1----30.03- 54.5 64.6----
2024-05-18 11:36 pmWSW 11.1 15.0----30.03- 54.5 64.4----
2024-05-18 11:30 pmWSW 12.0 13.0----30.03- 54.3 64.4----
2024-05-18 11:24 pmWSW 11.1 15.0----30.03- 54.3 64.4----
2024-05-18 11:18 pmWSW 11.1 13.0----30.03- 54.1 64.4----
2024-05-18 11:12 pmWSW 12.0 14.0----30.02- 54.0 64.2----
2024-05-18 11:06 pmWSW 11.1 13.0----30.03- 54.0 64.2----
2024-05-18 11:00 pmWSW 11.1 15.0----30.03+0.04 54.3 64.2----
2024-05-18 10:54 pmWSW 12.0 14.0----30.03- 54.3 64.2----
2024-05-18 10:48 pmWSW 13.0 15.0----30.03- 54.9 64.2----
2024-05-18 10:42 pm SW 11.1 14.0----30.03- 54.7 64.2----
2024-05-18 10:36 pmWSW 12.0 15.0----30.03- 54.7 64.2----
2024-05-18 10:30 pmWSW 13.0 15.9----30.03- 54.9 64.2----
2024-05-18 10:24 pmWSW 12.0 18.1----30.03- 55.4 64.2----
2024-05-18 10:18 pmWSW 15.9 20.0----30.02- 54.9 64.2----
2024-05-18 10:12 pmWSW 15.0 19.0----30.02- 55.0 64.2----
2024-05-18 10:06 pmWSW 13.0 18.1----30.02- 55.2 64.2----
2024-05-18 10:00 pmWSW 15.9 19.0----30.02+0.04 54.9 64.2----
2024-05-18 09:54 pmWSW 14.0 17.1----30.01- 55.0 64.2----
2024-05-18 09:48 pmWSW 15.0 20.0----30.01- 54.9 64.6----
2024-05-18 09:42 pm W 15.0 17.1----30.01- 54.9 64.6----
2024-05-18 09:36 pmWSW 14.0 17.1----30.01- 55.0 64.6----
2024-05-18 09:30 pmWSW 12.0 17.1----30.01- 55.4 64.6----
2024-05-18 09:24 pmWSW 13.0 15.9----30.00- 55.0 64.8----
2024-05-18 09:18 pm W 11.1 15.0----30.00- 54.9 64.8----
2024-05-18 09:12 pm W 13.0 17.1----30.00- 55.0 64.8----
2024-05-18 09:06 pm W 12.0 17.1----30.00- 54.9 64.8----
2024-05-18 09:00 pm W 12.0 17.1----30.00+0.02 55.2 64.8----
2024-05-18 08:54 pm W 13.0 15.9----30.00- 55.0 64.8----
2024-05-18 08:48 pm W 12.0 18.1----30.00- 55.0 64.9----
2024-05-18 08:42 pmWSW 14.0 17.1----29.99- 55.0 64.9----
2024-05-18 08:36 pm W 14.0 17.1----29.99- 54.9 64.9----
2024-05-18 08:30 pmWSW 12.0 15.9----29.99- 54.9 64.9----
2024-05-18 08:24 pmWSW 13.0 18.1----29.99- 54.9 64.9----
2024-05-18 08:18 pm W 13.0 19.0----29.99- 54.9 64.9----
2024-05-18 08:12 pm W 13.0 17.1----29.99- 55.0 65.1----
2024-05-18 08:06 pmWSW 14.0 18.1----29.99- 54.9 65.1----
2024-05-18 08:00 pm W 15.0 19.0----29.99+0.02 54.9 65.1----
2024-05-18 07:54 pmWSW 14.0 18.1----29.99- 54.9 65.1----
2024-05-18 07:48 pmWSW 14.0 19.0----29.99- 55.4 65.1----
2024-05-18 07:42 pmWSW 14.0 18.1----29.98- 55.2 65.3----
2024-05-18 07:36 pmWSW 13.0 19.0----29.98- 55.4 65.3----
2024-05-18 07:30 pm W 13.0 17.1----29.98- 55.4 65.3----
2024-05-18 07:24 pmWSW 13.0 17.1----29.98- 55.6 65.3----
2024-05-18 07:18 pmWSW 13.0 18.1----29.98- 55.4 65.3----
2024-05-18 07:12 pmWSW 12.0 17.1----29.98- 55.6 65.3----
2024-05-18 07:06 pmWSW 14.0 19.0----29.98- 55.9 65.3----
2024-05-18 07:00 pmWSW 13.0 19.0----29.98+0.00 55.9 65.3----
2024-05-18 06:54 pmWSW 15.0 19.0----29.98- 56.1 65.3----
2024-05-18 06:48 pmWSW 14.0 18.1----29.98- 56.3 65.3----
2024-05-18 06:42 pmWSW 17.1 19.0----29.98- 56.1 65.5----
2024-05-18 06:36 pmWSW 15.0 19.0----29.97- 56.1 65.5----
2024-05-18 06:30 pm W 13.0 15.9----29.97- 56.1 65.7----
2024-05-18 06:24 pmWSW 15.0 18.1----29.97- 56.1 65.8----
2024-05-18 06:18 pm W 13.0 15.9----29.97- 56.3 65.8----
2024-05-18 06:12 pm W 14.0 18.1----29.98- 56.5 65.8----
2024-05-18 06:06 pm W 12.0 17.1----29.97- 56.3 65.8----
2024-05-18 06:00 pm W 13.0 17.1----29.97+0.00 56.3 65.8----
2024-05-18 05:54 pm W 12.0 15.9----29.97- 56.7 65.8----
2024-05-18 05:48 pm W 13.0 15.9----29.97- 56.3 65.8----
2024-05-18 05:42 pm W 12.0 15.9----29.97- 57.0 65.8----
2024-05-18 05:36 pm W 13.0 17.1----29.97- 56.5 65.8----
2024-05-18 05:30 pm W 13.0 18.1----29.97- 56.8 65.8----
2024-05-18 05:24 pm W 13.0 17.1----29.97- 56.7 65.8----
2024-05-18 05:18 pm W 14.0 18.1----29.97- 56.8 65.8----
2024-05-18 05:12 pm W 13.0 17.1----29.97- 57.0 65.8----
2024-05-18 05:06 pm W 13.0 17.1----29.97- 56.7 65.8----
2024-05-18 05:00 pm W 13.0 17.1----29.97+0.00 56.8 65.8----
2024-05-18 04:54 pm W 12.0 15.9----29.97- 57.2 65.8----
2024-05-18 04:48 pm W 13.0 18.1----29.97- 57.4 65.7----
2024-05-18 04:42 pm W 12.0 18.1----29.97- 57.6 65.7----
2024-05-18 04:36 pm W 14.0 18.1----29.97- 57.4 65.8----
2024-05-18 04:30 pm W 15.0 21.0----29.97- 57.6 65.8----
2024-05-18 04:24 pm W 15.0 20.0----29.97- 57.7 65.8----
2024-05-18 04:18 pm W 14.0 19.0----29.97-- 65.7----
2024-05-18 04:12 pm W 15.9 21.0----29.97-- 65.8----
2024-05-18 04:06 pm W 15.0 19.0----29.97-- 65.7----
2024-05-18 04:00 pm W 15.0 18.1----29.97-0.01- 65.5----
2024-05-18 03:54 pm W 15.0 19.0----29.97-- 65.5----